KD7MPG-3 Weather Reports


time (UTC)temp
C
wind
direction
speed
KPH
gust
KPH
rain 1hr
cm
rain 24hr
cm
rain mn
cm
humidity
%
barometer
mb
20260903234943 15 103 1.6 6.4 0.05 1.22 1.12 88 1018.0
20260903234441 15 143 1.6 8.0 0.08 1.22 1.12 89 1017.9
20260903233941 15 144 1.6 8.0 0.08 1.22 1.12 89 1017.9
20260903233441 15 148 1.6 6.4 0.10 1.22 1.12 88 1018.0
20260903232942 15 159 1.6 4.8 0.10 1.22 1.12 89 1018.1
20260903232439 15 154 1.6 4.8 0.10 1.22 1.12 90 1018.1
20260903231937 14 149 1.6 4.8 0.10 1.22 1.12 90 1018.1
20260903231437 14 151 1.6 4.8 0.10 1.27 1.12 90 1018.1
20260903230937 13 157 0.0 4.8 0.10 1.42 1.12 90 1018.1
20260903230435 13 155 0.0 3.2 0.10 1.45 1.12 90 1018.1
20260903225935 13 155 0.0 4.8 0.10 1.45 1.09 90 1018.2
20260903225431 13 155 0.0 4.8 0.10 1.45 1.09 90 1018.3
20260903224929 13 139 1.6 6.4 0.13 1.45 1.07 90 1018.4
20260903224429 13 273 1.6 6.4 0.15 1.45 1.04 90 1018.4
20260903223930 13 264 1.6 6.4 0.18 1.45 1.04 90 1018.3
20260903223429 13 227 1.6 4.8 0.20 1.45 1.02 89 1018.4
20260903222930 13 227 1.6 4.8 0.30 1.47 1.02 90 1018.2
20260903222424 13 178 3.2 8.0 0.33 1.47 1.02 90 1018.3
20260903221923 13 180 3.2 8.0 0.38 1.47 1.02 90 1018.3
20260903221423 13 186 0.0 4.8 0.38 1.50 1.02 90 1018.2
20260903220923 12 129 0.0 3.2 0.41 1.50 1.02 91 1018.3
20260903220428 12 129 0.0 1.6 0.41 1.50 1.02 90 1018.3
20260903215923 12 130 0.0 1.6 0.38 1.47 0.99 89 1018.3
20260903215420 12 130 1.6 8.0 0.38 1.47 0.99 89 1018.3
20260903214920 12 128 1.6 11.3 0.33 1.42 0.94 89 1018.7
20260903214417 12 203 1.6 11.3 0.28 1.40 0.91 88 1018.7
20260903213917 13 175 3.2 12.9 0.23 1.35 0.86 88 1018.9
20260903213417 13 201 3.2 12.9 0.20 1.32 0.81 88 1019.0
20260903212917 13 229 1.6 6.4 0.10 1.22 0.71 88 1018.8
20260903212415 13 217 3.2 8.0 0.05 1.17 0.69 87 1018.8
20260903211913 13 225 4.8 14.5 0.03 1.17 0.66 86 1018.7
20260903211411 14 241 4.8 14.5 0.03 1.17 0.64 85 1018.7
20260903210911 14 263 3.2 8.0 0.00 1.14 0.61 84 1018.7
20260903210411 14 255 3.2 11.3 0.00 1.14 0.61 84 1018.5
20260903205912 14 271 4.8 12.9 0.00 1.14 0.61 83 1018.5
20260903205408 14 289 4.8 12.9 0.00 1.17 0.61 83 1018.3
20260903204907 14 248 3.2 12.9 0.00 1.17 0.61 82 1018.4
20260903204405 15 260 3.2 16.1 0.00 1.17 0.61 83 1018.3
20260903203905 15 207 4.8 16.1 0.00 1.17 0.61 83 1018.5
20260903203405 15 245 6.4 16.1 0.00 1.17 0.61 83 1018.5
20260903202906 15 257 6.4 16.1 0.00 1.17 0.61 84 1018.7
20260903202400 15 166 4.8 12.9 0.00 1.17 0.61 85 1018.7
20260903201859 15 161 4.8 14.5 0.00 1.17 0.61 86 1018.5
20260903201359 15 181 4.8 14.5 0.00 1.17 0.61 86 1018.5
20260903200859 15 148 4.8 14.5 0.00 1.17 0.61 87 1018.5
20260903200359 15 134 4.8 17.7 0.00 1.17 0.61 87 1018.5
20260903195900 15 138 4.8 17.7 0.00 1.17 0.61 87 1018.4
20260903195357 15 151 4.8 17.7 0.00 1.17 0.61 87 1018.5
20260903194857 15 213 6.4 20.9 0.00 1.17 0.61 87 1018.7
20260903194357 15 181 6.4 20.9 0.00 1.19 0.61 87 1018.8
20260903193857 15 123 6.4 17.7 0.00 1.19 0.61 87 1018.7
20260903193358 15 137 6.4 17.7 0.00 1.19 0.61 87 1018.7
20260903192857 15 99 6.4 16.1 0.00 1.19 0.61 87 1018.5
20260903192358 15 141 6.4 16.1 0.00 1.22 0.61 87 1018.7
20260903191852 15 137 6.4 16.1 0.00 1.24 0.61 86 1018.4
20260903191351 15 168 4.8 17.7 0.00 1.24 0.61 86 1018.7
20260903190851 15 157 4.8 17.7 0.00 1.24 0.61 86 1018.5
20260903190351 15 185 6.4 20.9 0.00 1.27 0.61 86 1018.7
20260903185851 16 198 6.4 20.9 0.00 1.30 0.61 87 1018.5
20260903185352 16 172 4.8 20.9 0.00 1.30 0.61 88 1018.7
20260903184845 15 125 3.2 11.3 0.00 1.32 0.61 89 1018.5
20260903184345 15 150 3.2 17.7 0.00 1.35 0.61 89 1018.7
20260903183844 15 114 4.8 17.7 0.00 1.37 0.61 89 1018.5
20260903183346 15 139 4.8 16.1 0.03 1.42 0.61 89 1018.5
20260903182844 15 145 4.8 16.1 0.03 1.45 0.61 89 1018.7
20260903182346 15 141 4.8 16.1 0.03 1.50 0.61 90 1018.8
20260903181840 15 223 3.2 14.5 0.05 1.55 0.61 89 1018.7
20260903181339 15 175 3.2 12.9 0.08 1.60 0.61 90 1018.7
20260903180840 15 169 4.8 16.1 0.10 1.63 0.61 89 1018.7
20260903180339 15 154 4.8 16.1 0.13 1.68 0.61 89 1018.7
20260903175839 14 134 6.4 19.3 0.13 1.70 0.61 89 1018.5
20260903175339 14 130 6.4 19.3 0.15 1.70 0.61 89 1018.5
20260903174840 14 142 4.8 19.3 0.18 1.70 0.61 90 1018.5
20260903174333 14 186 4.8 17.7 0.18 1.70 0.61 91 1018.7
20260903173832 14 132 4.8 17.7 0.18 1.70 0.61 90 1018.5
20260903173332 13 154 4.8 17.7 0.15 1.68 0.58 90 1018.5
20260903172833 13 130 4.8 17.7 0.15 1.70 0.58 89 1018.5
20260903172332 13 149 4.8 17.7 0.15 1.70 0.58 89 1018.5
20260903171832 13 143 3.2 11.3 0.13 1.70 0.58 89 1018.5
20260903171334 14 167 3.2 17.7 0.10 1.70 0.53 88 1018.7
20260903170828 14 186 3.2 17.7 0.08 1.70 0.51 88 1018.9
20260903170323 14 189 3.2 12.9 0.05 1.70 0.48 88 1018.8
20260903165821 14 173 4.8 12.9 0.05 1.73 0.48 88 1018.7
20260903165320 14 175 4.8 14.5 0.03 1.70 0.46 87 1018.7
20260903164820 15 132 4.8 16.1 0.00 1.70 0.43 87 1018.5
20260903164321 15 131 4.8 22.5 0.00 1.70 0.43 87 1018.5
20260903163820 15 167 4.8 22.5 0.00 1.70 0.43 87 1018.5
20260903163323 15 131 4.8 16.1 0.00 1.73 0.43 87 1018.5
20260903162816 15 165 3.2 16.1 0.00 1.73 0.43 88 1018.7
20260903162317 15 159 3.2 12.9 0.00 1.73 0.43 89 1018.7
20260903161818 14 159 4.8 17.7 0.00 1.73 0.43 89 1018.8
20260903161316 14 112 4.8 17.7 0.00 1.73 0.43 90 1018.5
20260903160817 13 114 3.2 12.9 0.00 1.73 0.43 91 1018.7
20260903160317 13 119 3.2 11.3 0.00 1.73 0.43 91 1018.4
20260903155812 13 133 3.2 11.3 0.00 1.73 0.43 90 1018.4
20260903155312 13 115 3.2 11.3 0.00 1.73 0.43 90 1018.5
20260903154814 13 173 3.2 12.9 0.00 1.73 0.43 90 1018.5
20260903154312 13 157 3.2 12.9 0.00 1.73 0.43 91 1018.5
20260903153812 12 151 3.2 11.3 0.00 1.73 0.43 91 1018.5
20260903153314 12 175 3.2 17.7 0.00 1.73 0.43 91 1018.5
20260903152809 12 106 3.2 17.7 0.00 1.73 0.43 91 1018.5
20260903152309 12 151 1.6 11.3 0.00 1.73 0.43 91 1018.4
20260903151810 12 128 1.6 11.3 0.00 1.73 0.43 91 1018.4
20260903151308 12 139 1.6 16.1 0.00 1.73 0.43 91 1018.5
20260903150808 12 146 3.2 16.1 0.00 1.73 0.43 91 1018.5
20260903150310 12 137 4.8 12.9 0.00 1.73 0.43 91 1018.4
20260903145806 12 130 3.2 11.3 0.03 1.73 0.43 91 1018.5
20260903145306 12 132 3.2 11.3 0.05 1.73 0.43 91 1018.4
20260903144804 12 157 3.2 11.3 0.08 1.73 0.43 91 1018.4
20260903144304 12 171 3.2 11.3 0.13 1.73 0.43 91 1018.4
20260903144035 12 99 3.2 12.9 0.15 1.73 0.43 92 1018.3
20260903143304 12 146 3.2 12.9 0.15 1.73 0.43 92 1018.4
20260903142803 12 119 3.2 12.9 0.18 1.73 0.43 92 1018.3
20260903142531 12 102 3.2 12.9 0.23 1.73 0.43 92 1018.2
20260903141801 12 134 1.6 9.7 0.33 1.73 0.43 91 1018.3
20260903141302 12 145 3.2 9.7 0.38 1.73 0.43 91 1018.4
20260903140800 12 154 3.2 14.5 0.41 1.73 0.43 91 1018.3
20260903140258 12 172 3.2 14.5 0.41 1.73 0.43 91 1018.4
20260903135759 12 155 4.8 16.1 0.38 1.70 0.41 91 1018.4
20260903135252 12 148 6.4 17.7 0.38 1.68 0.38 91 1018.3
20260903134752 12 111 4.8 17.7 0.36 1.65 0.36 91 1018.5
20260903134252 12 125 3.2 14.5 0.30 1.60 0.30 91 1018.5
20260903133752 12 198 3.2 16.1 0.28 1.57 0.28 91 1018.5
20260903133252 12 152 4.8 17.7 0.28 1.57 0.28 91 1018.4
20260903132752 12 194 6.4 17.7 0.25 1.55 0.25 90 1018.4
20260903132247 12 97 4.8 14.5 0.20 1.50 0.20 90 1018.4
20260903131746 12 149 3.2 11.3 0.10 1.40 0.10 90 1018.3
20260903131246 12 151 3.2 12.9 0.05 1.35 0.08 90 1018.2
20260903130746 12 178 3.2 12.9 0.03 1.32 0.05 90 1018.3
20260903130246 13 159 3.2 12.9 0.03 1.32 0.03 90 1018.1
20260903125747 13 191 4.8 12.9 0.03 1.32 0.03 90 1018.1
20260903125242 13 181 3.2 12.9 0.00 1.30 0.00 90 1018.0
20260903124742 12 217 3.2 11.3 0.00 1.30 0.00 90 1017.9
20260903124243 12 148 4.8 14.5 0.00 1.30 0.00 90 1018.1
20260903123742 12 149 3.2 14.5 0.00 1.30 0.00 90 1018.1
20260903123240 12 146 3.2 11.3 0.00 1.30 0.00 90 1018.0
20260903122740 12 144 4.8 12.9 0.00 1.30 0.00 90 1018.1
20260903122235 12 159 4.8 22.5 0.00 1.30 0.00 90 1018.1
20260903121734 12 148 4.8 22.5 0.00 1.30 0.00 90 1018.2
20260903121234 12 155 6.4 16.1 0.00 1.30 0.00 90 1018.2
20260903120734 12 128 4.8 14.5 0.00 1.30 0.00 90 1018.2
20260903120234 12 185 4.8 14.5 0.00 1.30 0.00 90 1018.2
20260903115735 12 155 6.4 19.3 0.00 1.30 0.00 90 1018.2
20260903115229 12 126 6.4 19.3 0.00 1.30 0.00 90 1018.3
20260903114727 12 169 6.4 22.5 0.00 1.30 0.00 90 1018.3
20260903114228 12 136 6.4 22.5 0.00 1.30 0.00 90 1018.2
20260903113728 12 171 4.8 16.1 0.00 1.30 0.00 90 1018.3
20260903113228 12 169 4.8 16.1 0.00 1.30 0.00 90 1018.3
20260903112730 12 140 4.8 16.1 0.00 1.30 0.00 90 1018.3
20260903112223 12 130 4.8 12.9 0.00 1.30 0.00 89 1018.2
20260903111722 12 109 3.2 12.9 0.00 1.30 0.00 90 1018.2
20260903111222 12 115 3.2 11.3 0.00 1.30 0.00 90 1018.2
20260903110722 12 146 3.2 12.9 0.00 1.30 0.00 89 1018.3
20260903110222 12 156 3.2 12.9 0.00 1.30 0.00 89 1018.4
20260903105723 13 153 3.2 12.9 0.00 1.30 0.00 89 1018.4
20260903105218 13 186 3.2 14.5 0.00 1.30 0.00 89 1018.4
20260903104716 13 146 4.8 16.1 0.00 1.30 0.00 89 1018.5
20260903104216 13 173 3.2 16.1 0.00 1.30 0.00 89 1018.4
20260903103722 13 167 3.2 9.7 0.00 1.30 0.00 89 1018.5
20260903103215 13 149 3.2 14.5 0.00 1.30 0.00 89 1018.7
20260903102717 13 148 4.8 14.5 0.00 1.30 0.00 89 1018.7
20260903102214 13 138 4.8 14.5 0.00 1.30 0.00 89 1018.7
20260903101714 13 141 4.8 16.1 0.00 1.30 0.00 89 1018.5
20260903101215 12 167 4.8 16.1 0.00 1.30 0.00 89 1018.7
20260903100712 12 155 4.8 16.1 0.00 1.30 0.00 90 1018.7
20260903100210 12 163 4.8 16.1 0.00 1.30 0.00 90 1018.8
20260903095710 12 118 4.8 17.7 0.00 1.30 0.00 90 1018.5
20260903095206 12 209 4.8 17.7 0.00 1.30 0.00 90 1018.5
20260903094705 12 157 3.2 12.9 0.00 1.30 0.00 90 1018.5
20260903094207 12 148 3.2 14.5 0.00 1.30 0.00 90 1018.7
20260903093706 12 159 4.8 14.5 0.00 1.30 0.00 90 1018.7
20260903093204 13 147 3.2 14.5 0.00 1.30 0.00 90 1018.8
20260903092704 13 98 3.2 19.3 0.00 1.30 0.00 90 1018.7
20260903092201 13 153 4.8 19.3 0.00 1.30 0.00 90 1018.7
20260903091700 13 135 3.2 12.9 0.00 1.30 0.00 90 1018.7
20260903091158 13 163 3.2 12.9 0.00 1.30 0.00 90 1018.9
20260903090657 13 141 3.2 11.3 0.00 1.30 0.00 90 1019.0
20260903090157 13 157 3.2 12.9 0.00 1.30 0.00 90 1019.0
20260903085657 13 175 3.2 12.9 0.00 1.30 0.00 90 1019.1
20260903085153 13 157 3.2 11.3 0.00 1.30 0.00 90 1019.0
20260903084652 12 153 3.2 14.5 0.00 1.30 0.00 90 1019.1
20260903084150 12 155 3.2 14.5 0.00 1.30 0.00 90 1019.1
20260903083649 12 149 4.8 17.7 0.00 1.30 0.00 90 1019.0
20260903083149 12 122 6.4 17.7 0.00 1.30 0.00 90 1019.0
20260903082651 12 123 4.8 14.5 0.00 1.30 0.00 90 1019.0
20260903082146 13 136 3.2 14.5 0.00 1.30 0.00 90 1019.0
20260903081646 12 149 3.2 14.5 0.00 1.30 0.00 90 1019.1
20260903081145 12 155 4.8 14.5 0.00 1.30 0.00 90 1019.0
20260903080645 13 151 4.8 12.9 0.00 1.30 0.00 90 1019.0
20260903080145 12 153 3.2 12.9 0.00 1.30 0.00 90 1018.9
20260903075645 12 178 3.2 9.7 0.00 1.30 0.00 90 1018.9
20260903075146 12 153 3.2 9.7 0.00 1.30 0.00 90 1018.9
20260903074644 12 142 3.2 9.7 0.00 1.30 0.00 90 1018.9
20260903074144 12 144 4.8 9.7 0.00 1.30 0.00 90 1019.0
20260903073644 12 159 4.8 14.5 0.00 1.30 0.00 90 1018.9
20260903073143 12 114 4.8 14.5 0.00 1.30 0.00 90 1018.9
20260903072645 13 157 3.2 12.9 0.00 1.30 0.00 90 1018.9
20260903072144 13 165 3.2 11.3 0.00 1.30 0.00 90 1018.8
20260903071645 13 173 3.2 16.1 0.00 1.30 0.00 90 1018.9
20260903071138 13 163 3.2 16.1 0.00 1.30 0.00 90 1018.8
20260903070637 13 173 4.8 11.3 0.00 1.30 0.00 90 1018.7
20260903070138 13 123 4.8 16.1 0.00 1.30 0.00 90 1018.9
20260903065638 13 123 4.8 16.1 0.00 1.30 1.30 90 1018.8
20260903065138 13 188 4.8 14.5 0.00 1.30 1.30 91 1018.9
20260903064638 13 108 4.8 12.9 0.00 1.30 1.30 91 1018.9
20260903064136 13 153 3.2 12.9 0.00 1.30 1.30 90 1018.9
20260903063637 13 148 3.2 12.9 0.00 1.30 1.30 90 1019.0
20260903063136 13 147 3.2 12.9 0.00 1.30 1.30 90 1019.0
20260903062636 13 146 3.2 12.9 0.00 1.30 1.30 90 1018.8
20260903062136 13 152 3.2 12.9 0.00 1.30 1.30 90 1018.9
20260903061635 13 119 3.2 12.9 0.00 1.30 1.30 90 1019.0
20260903061142 13 147 3.2 9.7 0.00 1.30 1.30 90 1019.1
20260903060634 13 180 3.2 11.3 0.00 1.30 1.30 90 1019.0
20260903060133 13 161 3.2 12.9 0.00 1.30 1.30 90 1019.1
20260903055634 13 153 3.2 12.9 0.00 1.30 1.30 90 1019.0
20260903055135 13 177 3.2 11.3 0.00 1.30 1.30 90 1019.0
20260903054635 13 134 1.6 9.7 0.00 1.30 1.30 90 1019.0
20260903054131 13 171 3.2 11.3 0.00 1.30 1.30 90 1019.1
20260903053632 13 157 3.2 11.3 0.00 1.30 1.30 90 1019.1
20260903053127 13 164 3.2 8.0 0.00 1.30 1.30 90 1019.1
20260903052625 13 148 1.6 8.0 0.00 1.30 1.30 91 1019.1
20260903052124 13 152 3.2 9.7 0.00 1.30 1.30 91 1019.1
20260903051625 13 194 3.2 9.7 0.00 1.30 1.30 91 1019.0
20260903051124 13 146 3.2 9.7 0.00 1.30 1.30 91 1019.0
20260903050626 13 187 1.6 9.7 0.00 1.30 1.30 91 1018.9
20260903050121 13 134 3.2 12.9 0.00 1.30 1.30 91 1018.9
20260903045623 13 173 4.8 12.9 0.00 1.30 1.30 91 1018.9
20260903045121 13 138 3.2 11.3 0.00 1.30 1.30 91 1018.9
20260903044621 13 131 1.6 11.3 0.00 1.30 1.30 91 1018.7
20260903044123 13 126 1.6 8.0 0.00 1.30 1.30 91 1018.5
20260903043622 13 185 1.6 8.0 0.00 1.30 1.30 91 1018.4
20260903043123 13 157 4.8 12.9 0.00 1.30 1.30 91 1018.3
20260903042618 13 146 4.8 12.9 0.00 1.30 1.30 91 1018.3
20260903042118 13 158 4.8 16.1 0.00 1.30 1.30 91 1018.4
20260903041614 13 146 4.8 16.1 0.00 1.30 1.30 91 1018.3
20260903041106 13 161 4.8 16.1 0.00 1.30 1.30 90 1018.3
20260903040600 13 159 4.8 16.1 0.00 1.30 1.30 90 1018.3
20260903040059 13 188 6.4 16.1 0.00 1.30 1.30 90 1018.3
20260903035600 13 150 4.8 12.9 0.00 1.30 1.30 90 1018.3
20260903035100 13 148 3.2 12.9 0.00 1.30 1.30 90 1018.2
20260903034600 13 124 4.8 11.3 0.00 1.30 1.30 90 1018.1
20260903034100 13 144 4.8 12.9 0.00 1.30 1.30 90 1017.9
20260903033600 13 154 4.8 14.5 0.00 1.30 1.30 89 1017.9
20260903033056 13 127 4.8 14.5 0.00 1.30 1.30 90 1017.9
20260903032555 13 159 3.2 11.3 0.00 1.30 1.30 89 1018.0
20260903032056 13 173 3.2 11.3 0.00 1.30 1.30 89 1018.0
20260903031556 13 153 4.8 11.3 0.00 1.30 1.30 89 1017.9
20260903031055 14 176 4.8 11.3 0.00 1.30 1.30 89 1017.8
20260903030558 14 194 3.2 11.3 0.00 1.30 1.30 89 1017.7
20260903030051 14 174 3.2 9.7 0.00 1.30 1.30 89 1017.6
20260903025551 14 175 3.2 9.7 0.00 1.30 1.30 89 1017.4
20260903025052 14 182 3.2 9.7 0.00 1.30 1.30 89 1017.3
20260903024552 14 175 1.6 9.7 0.00 1.30 1.30 89 1017.4
20260903024051 14 155 3.2 11.3 0.00 1.30 1.30 89 1017.4
20260903023553 14 159 3.2 11.3 0.00 1.30 1.30 89 1017.4
20260903023047 14 124 3.2 12.9 0.03 1.30 1.30 90 1017.4
20260903022547 15 166 3.2 12.9 0.03 1.30 1.30 90 1017.5
20260903022047 15 150 3.2 9.7 0.03 1.30 1.30 90 1017.5
20260903021547 15 215 3.2 11.3 0.03 1.30 1.30 90 1017.4
20260903021047 15 153 3.2 11.3 0.03 1.30 1.30 90 1017.3
20260903020547 15 104 3.2 8.0 0.03 1.30 1.30 90 1017.2
20260903020045 15 161 3.2 11.3 0.03 1.30 1.30 90 1017.2
20260903015545 15 188 4.8 11.3 0.03 1.30 1.30 90 1017.2
20260903015045 15 171 4.8 9.7 0.03 1.30 1.30 90 1017.1
20260903014545 15 157 3.2 9.7 0.05 1.30 1.30 90 1017.1
20260903014045 15 175 3.2 9.7 0.08 1.30 1.30 90 1017.0
20260903013545 15 162 3.2 9.7 0.10 1.30 1.30 90 1016.9
20260903013046 15 157 3.2 9.7 0.08 1.27 1.27 89 1016.9
20260903012543 15 221 3.2 8.0 0.08 1.27 1.27 89 1017.1
20260903012041 15 192 3.2 11.3 0.08 1.27 1.27 89 1016.9
20260903011542 15 155 3.2 11.3 0.08 1.27 1.27 89 1016.9
20260903011041 15 185 3.2 11.3 0.08 1.27 1.27 89 1016.8
20260903010539 15 202 3.2 9.7 0.08 1.27 1.27 89 1016.9
20260903010039 15 157 3.2 9.7 0.08 1.27 1.27 89 1016.7
20260903005535 15 217 3.2 9.7 0.08 1.27 1.27 89 1016.6
20260903005035 15 182 3.2 8.0 0.08 1.27 1.27 89 1016.6
20260903004536 15 153 1.6 11.3 0.05 1.24 1.24 89 1016.7
20260903004035 15 241 1.6 11.3 0.03 1.22 1.22 89 1016.7
20260903003533 16 161 1.6 6.4 0.00 1.19 1.19 90 1016.7
20260903003033 16 159 1.6 9.7 0.00 1.19 1.19 90 1016.5
20260903002527 16 159 1.6 9.7 0.00 1.19 1.19 90 1016.6
20260903002026 16 186 1.6 8.0 0.00 1.19 1.19 90 1016.7
20260903001523 16 159 3.2 8.0 0.03 1.19 1.19 90 1016.5
20260903001021 16 150 1.6 8.0 0.20 1.19 1.19 90 1016.4
20260903000521 16 111 1.6 8.0 0.23 1.19 1.19 91 1016.4
20260903000015 15 154 1.6 8.0 0.25 1.19 1.19 91 1016.3
20260902235515 15 186 1.6 6.4 0.25 1.19 1.19 91 1016.4